Location: Unspecified
(29.9680°N, 0.0000°E)
Time: 09:29:02
(UTC+00:00)

A-11 Canister half - Pass Details

Date: 21 June 2019
Orbit: 1526 x 1682 km, 47.3° (Epoch: 24 August)

Event Time Altitude Azimuth Distance (km) Brightness Sun altitude
Rises 01:00:26 0° 170° (S) 4,813 - -34.8°
Reaches altitude 10° 01:06:51 10° 139° (SE) 3,788 - -34.3°
Exits shadow 01:09:19 11° 124° (ESE) 3,667 10.8 -34.2°
Maximum altitude 01:09:28 11° 123° (ESE) 3,666 10.8 -34.2°
Drops below altitude 10° 01:12:03 10° 106° (ESE) 3,759 11.0 -34.0°
Sets 01:18:15 0° 76° (ENE) 4,712 12.0 -33.5°
